• In Hungary
  • List of Countries
  • For 7 days
  • Water Temperature
  • Satellite Maps
  • Weather Map
  • News
  • Weather Widgets
  • user-avatar
    Login

    Hourly Weather Wisnicze

    Today, 25 June, Monday

    Time Temperature Precipitation Wind Pressure Humidity
    00:00 +10°C° 0.2 mm 2 mps 739 mmHg 95%
    01:00 +11°C° 0 mm 1 mps 739 mmHg 96%
    02:00 +10°C° 0 mm 2 mps 739 mmHg 96%
    03:00 +10°C° 0 mm 2 mps 739 mmHg 96%
    04:00 +10°C° 0 mm 2 mps 739 mmHg 97%
    05:00 +10°C° 0 mm 2 mps 739 mmHg 94%
    06:00 +12°C° 0 mm 2 mps 740 mmHg 92%
    07:00 +13°C° 0 mm 2 mps 740 mmHg 89%
    08:00 +14°C° 0 mm 2 mps 740 mmHg 83%
    09:00 +15°C° 0 mm 2 mps 740 mmHg 77%
    10:00 +16°C° 0 mm 2 mps 740 mmHg 71%
    11:00 +17°C° 0 mm 2 mps 740 mmHg 64%
    12:00 +19°C° 0 mm 3 mps 740 mmHg 57%
    13:00 +20°C° 0 mm 3 mps 740 mmHg 51%
    14:00 +20°C° 0 mm 3 mps 740 mmHg 51%
    15:00 +20°C° 0 mm 3 mps 740 mmHg 52%
    16:00 +20°C° 0 mm 3 mps 740 mmHg 52%
    17:00 +19°C° 0.2 mm 2 mps 740 mmHg 59%
    18:00 +18°C° 0.2 mm 2 mps 740 mmHg 66%
    19:00 +17°C° 0.2 mm 2 mps 740 mmHg 74%
    20:00 +16°C° 0.2 mm 1 mps 740 mmHg 77%
    21:00 +15°C° 0.2 mm 1 mps 740 mmHg 81%
    22:00 +14°C° 0.2 mm 1 mps 740 mmHg 84%
    23:00 +14°C° 0.2 mm 1 mps 740 mmHg 86%

    Tomorrow, 26 June, Tuesday

    Time Temperature Precipitation Wind Pressure Humidity
    00:00 +14°C° 0.2 mm 1 mps 740 mmHg 87%
    01:00 +13°C° 0.2 mm 2 mps 740 mmHg 89%
    02:00 +13°C° 0.4 mm 2 mps 740 mmHg 91%
    03:00 +12°C° 0.4 mm 2 mps 740 mmHg 92%
    04:00 +12°C° 0.4 mm 1 mps 740 mmHg 94%
    05:00 +13°C° 0.1 mm 2 mps 740 mmHg 90%
    06:00 +14°C° 0.1 mm 2 mps 740 mmHg 86%
    07:00 +16°C° 0.1 mm 2 mps 740 mmHg 82%
    08:00 +17°C° 0.4 mm 2 mps 740 mmHg 77%
    09:00 +18°C° 0.4 mm 2 mps 740 mmHg 72%
    10:00 +18°C° 0.4 mm 3 mps 740 mmHg 68%
    11:00 +19°C° 0.6 mm 3 mps 740 mmHg 66%
    12:00 +20°C° 0.6 mm 3 mps 740 mmHg 64%
    13:00 +20°C° 0.6 mm 3 mps 740 mmHg 62%
    14:00 +20°C° 0.6 mm 3 mps 740 mmHg 64%
    15:00 +20°C° 0.6 mm 3 mps 739 mmHg 66%
    16:00 +20°C° 0.6 mm 3 mps 739 mmHg 68%
    17:00 +19°C° 0.6 mm 3 mps 739 mmHg 73%
    18:00 +18°C° 0.6 mm 3 mps 739 mmHg 77%
    19:00 +17°C° 0.6 mm 2 mps 739 mmHg 81%
    20:00 +16°C° 0.1 mm 2 mps 739 mmHg 85%
    21:00 +15°C° 0.1 mm 2 mps 740 mmHg 88%
    22:00 +14°C° 0.1 mm 2 mps 740 mmHg 91%
    23:00 +13°C° 0 mm 2 mps 740 mmHg 92%

    Day after tomorrow, 27 June, Wednesday

    Time Temperature Precipitation Wind Pressure Humidity
    00:00 +13°C° 0 mm 2 mps 740 mmHg 93%
    01:00 +12°C° 0 mm 2 mps 740 mmHg 94%
    02:00 +12°C° 0 mm 2 mps 740 mmHg 95%
    03:00 +12°C° 0 mm 2 mps 740 mmHg 95%
    04:00 +10°C° 0 mm 2 mps 740 mmHg 96%
    05:00 +13°C° 0 mm 2 mps 740 mmHg 92%
    06:00 +14°C° 0 mm 2 mps 741 mmHg 87%
    07:00 +16°C° 0 mm 3 mps 741 mmHg 83%
    08:00 +18°C° 0 mm 3 mps 741 mmHg 76%
    09:00 +19°C° 0 mm 4 mps 741 mmHg 69%
    10:00 +21°C° 0 mm 4 mps 741 mmHg 61%
    11:00 +21°C° 0.6 mm 5 mps 741 mmHg 64%
    12:00 +21°C° 0.6 mm 5 mps 741 mmHg 67%
    13:00 +21°C° 0.6 mm 5 mps 741 mmHg 69%
    14:00 +21°C° 0.6 mm 5 mps 741 mmHg 70%
    15:00 +21°C° 0.6 mm 5 mps 740 mmHg 72%
    16:00 +21°C° 0.6 mm 5 mps 740 mmHg 73%
    17:00 +21°C° 0.5 mm 5 mps 740 mmHg 75%
    18:00 +20°C° 0.5 mm 4 mps 740 mmHg 78%
    19:00 +19°C° 0.5 mm 4 mps 740 mmHg 80%
    20:00 +19°C° 0.1 mm 4 mps 740 mmHg 81%
    21:00 +18°C° 0.1 mm 4 mps 740 mmHg 82%
    22:00 +18°C° 0.1 mm 4 mps 740 mmHg 83%
    23:00 +16°C° 0 mm 5 mps 739 mmHg 83%

    28 June, Thursday

    Time Temperature Precipitation Wind Pressure Humidity
    00:00 +16°C° 0 mm 5 mps 739 mmHg 84%
    01:00 +16°C° 0 mm 5 mps 739 mmHg 84%
    02:00 +16°C° 0.1 mm 6 mps 738 mmHg 85%
    03:00 +16°C° 0.1 mm 6 mps 738 mmHg 86%
    04:00 +16°C° 0.1 mm 6 mps 737 mmHg 87%
    05:00 +17°C° 0.1 mm 6 mps 737 mmHg 86%
    06:00 +17°C° 0.1 mm 7 mps 737 mmHg 85%
    07:00 +18°C° 0.1 mm 7 mps 737 mmHg 85%
    08:00 +18°C° 0.2 mm 7 mps 737 mmHg 84%
    09:00 +20°C° 0.2 mm 6 mps 737 mmHg 83%
    10:00 +20°C° 0.2 mm 6 mps 737 mmHg 83%
    11:00 +21°C° 0.4 mm 6 mps 737 mmHg 83%
    12:00 +21°C° 0.4 mm 6 mps 737 mmHg 83%
    13:00 +21°C° 0.4 mm 6 mps 737 mmHg 83%
    14:00 +22°C° 0.4 mm 6 mps 736 mmHg 82%
    15:00 +22°C° 0.4 mm 6 mps 736 mmHg 81%
    16:00 +23°C° 0.4 mm 6 mps 736 mmHg 80%
    17:00 +22°C° 0.7 mm 5 mps 736 mmHg 82%
    18:00 +22°C° 0.7 mm 4 mps 736 mmHg 85%
    19:00 +21°C° 0.7 mm 4 mps 736 mmHg 88%
    20:00 +21°C° 0.1 mm 4 mps 736 mmHg 90%
    21:00 +20°C° 0.1 mm 3 mps 736 mmHg 92%
    22:00 +20°C° 0.1 mm 3 mps 736 mmHg 94%
    23:00 +19°C° 0.2 mm 3 mps 736 mmHg 95%

    29 June, Friday

    Time Temperature Precipitation Wind Pressure Humidity
    00:00 +19°C° 0.2 mm 3 mps 736 mmHg 96%
    01:00 +19°C° 0.2 mm 4 mps 736 mmHg 96%
    02:00 +19°C° 0.2 mm 4 mps 736 mmHg 97%
    03:00 +19°C° 0.2 mm 3 mps 736 mmHg 97%
    04:00 +19°C° 0.2 mm 3 mps 736 mmHg 98%
    05:00 +19°C° 0 mm 3 mps 736 mmHg 95%
    06:00 +20°C° 0 mm 4 mps 736 mmHg 93%
    07:00 +20°C° 0 mm 4 mps 736 mmHg 91%
    08:00 +22°C° 0 mm 4 mps 736 mmHg 85%
    09:00 +23°C° 0 mm 4 mps 736 mmHg 80%
    10:00 +25°C° 0 mm 4 mps 736 mmHg 75%
    11:00 +26°C° 0.5 mm 4 mps 736 mmHg 72%
    12:00 +27°C° 0.5 mm 4 mps 736 mmHg 70%
    13:00 +28°C° 0.5 mm 4 mps 736 mmHg 67%
    14:00 +28°C° 0.4 mm 5 mps 736 mmHg 66%
    15:00 +28°C° 0.4 mm 5 mps 736 mmHg 65%
    16:00 +29°C° 0.4 mm 5 mps 735 mmHg 64%
    17:00 +28°C° 0.4 mm 4 mps 736 mmHg 68%
    18:00 +27°C° 0.4 mm 4 mps 736 mmHg 73%
    19:00 +26°C° 0.4 mm 4 mps 736 mmHg 77%
    20:00 +23°C° 0.3 mm 4 mps 736 mmHg 80%
    21:00 +22°C° 0.3 mm 3 mps 736 mmHg 84%
    22:00 +21°C° 0.3 mm 3 mps 737 mmHg 87%
    23:00 +21°C° 0 mm 3 mps 737 mmHg 88%

    30 June, Saturday

    Time Temperature Precipitation Wind Pressure Humidity
    00:00 +20°C° 0 mm 4 mps 737 mmHg 88%
    01:00 +20°C° 0 mm 4 mps 737 mmHg 89%
    02:00 +19°C° 0 mm 4 mps 738 mmHg 89%
    03:00 +18°C° 0 mm 4 mps 738 mmHg 89%
    04:00 +18°C° 0 mm 4 mps 738 mmHg 89%
    05:00 +18°C° 0 mm 4 mps 739 mmHg 86%
    06:00 +19°C° 0 mm 4 mps 739 mmHg 83%
    07:00 +19°C° 0 mm 4 mps 739 mmHg 79%
    08:00 +21°C° 0 mm 4 mps 740 mmHg 74%
    09:00 +22°C° 0 mm 4 mps 740 mmHg 69%
    10:00 +25°C° 0 mm 4 mps 740 mmHg 64%
    11:00 +25°C° 0 mm 5 mps 740 mmHg 59%
    12:00 +26°C° 0 mm 5 mps 740 mmHg 54%
    13:00 +26°C° 0 mm 5 mps 740 mmHg 49%
    14:00 +26°C° 0 mm 5 mps 741 mmHg 47%
    15:00 +25°C° 0 mm 5 mps 741 mmHg 45%
    16:00 +25°C° 0 mm 5 mps 741 mmHg 43%
    17:00 +23°C° 0 mm 5 mps 741 mmHg 48%
    18:00 +21°C° 0 mm 4 mps 741 mmHg 54%
    19:00 +20°C° 0 mm 3 mps 741 mmHg 59%
    20:00 +18°C° 0 mm 3 mps 741 mmHg 62%
    21:00 +17°C° 0 mm 3 mps 742 mmHg 66%
    22:00 +16°C° 0 mm 3 mps 742 mmHg 69%
    23:00 +14°C° 0 mm 3 mps 742 mmHg 71%
    Show more